Probability
4 4 3 3 3 2 2 2 3 3 3 3 3 3 3 3 4 6 6 6 6 6 6 6 6 6 6 7 9 10 10 10 10 9 10 11 11 12 13 12 9 5 3
5 4 3 3 3 1 1 1 2 3 3 3 3 4 4 4 4 5 6 6 6 6 6 6 6 6 6 7 8 9 9 10 10 10 10 10 9 10 11 11 9 6 4
5 5 4 3 2 1 0 0 1 2 2 2 2 3 3 4 4 4 6 6 6 6 6 6 6 6 7 7 9 10 10 10 10 10 9 8 8 8 10 10 9 8 7
4 4 3 2 2 1 0 0 0 1 1 0 1 1 1 1 2 3 5 6 6 7 7 7 7 7 7 8 9 11 12 12 11 10 9 8 7 7 8 8 8 8 8
3 2 1 1 1 0 1 1 0 0 0 0 0 0 0 0 0 2 3 4 4 6 6 5 6 7 6 6 7 8 10 12 13 11 9 7 6 6 6 6 6 6 6
2 1 0 0 0 0 1 2 1 1 0 0 0 0 1 0 0 1 2 2 2 2 2 2 3 3 3 2 2 3 5 8 10 9 7 5 4 4 4 5 5 5 5
2 1 0 0 0 0 2 3 3 2 1 0 0 0 0 0 0 0 1 1 0 0 0 1 1 1 0 0 0 0 1 2 4 4 4 3 3 3 4 5 5 5 6
2 1 0 0 0 0 2 3 3 3 1 1 0 0 1 1 0 0 0 0 0 1 1 1 0 0 0 0 0 0 0 0 1 2 3 2 2 2 3 3 3 4 5
1 0 0 0 0 0 1 2 2 2 2 1 1 2 3 3 1 0 0 0 1 2 2 1 0 0 0 0 0 0 0 0 0 1 1 1 0 1 1 1 1 1 2
1 1 0 0 0 0 0 1 2 1 1 1 2 5 7 4 1 0 0 1 2 3 2 1 0 0 0 0 0 0 0 0 0 0 0 0 0 0 0 0 0 0 1
5 3 1 1 2 1 1 2 2 2 2 3 4 7 8 5 2 1 0 1 2 3 2 1 0 0 0 0 0 0 0 0 1 1 1 1 0 0 0 0 0 0 1
9 7 4 3 3 3 3 3 3 3 4 5 5 7 7 4 2 1 0 0 1 2 1 0 0 0 0 0 0 0 0 1 2 2 2 1 0 0 0 1 1 1 1
11 10 7 5 3 3 3 3 3 3 4 4 4 5 4 2 1 1 1 1 0 1 1 0 0 0 0 0 0 0 0 1 1 1 1 0 0 0 0 1 1 1 1
12 11 9 6 4 3 3 3 3 3 3 2 3 3 2 1 1 1 1 1 0 0 0 0 0 0 0 0 0 0 0 0 1 1 1 1 1 0 0 1 1 0 0
12 12 9 6 4 3 3 3 2 2 1 1 1 1 0 0 0 0 1 1 0 0 0 0 0 1 0 0 0 0 0 0 0 1 2 2 1 0 0 1 1 0 0
11 10 7 5 4 3 2 1 1 1 0 0 0 0 0 0 0 0 0 0 0 0 0 0 0 0 0 0 0 0 0 0 0 1 1 1 1 0 0 1 1 0 0
7 6 5 4 3 2 1 0 0 0 0 0 0 0 0 0 0 0 0 0 0 0 0 0 0 0 0 0 0 0 0 0 0 0 0 0 0 0 0 1 1 0 0
4 4 3 3 3 1 0 0 0 0 0 0 0 0 0 0 0 0 0 0 0 0 0 0 0 0 0 0 0 0 0 0 0 0 0 1 1 1 1 1 1 0 0
3 3 2 3 3 2 1 0 0 0 0 0 0 0 0 0 0 0 0 0 0 0 0 0 0 0 0 0 0 0 0 0 0 0 0 1 2 2 2 2 1 0 0
3 2 1 1 2 2 1 0 0 0 0 0 0 0 0 0 0 0 0 0 0 0 0 0 0 0 0 0 0 0 0 0 0 0 0 1 1 1 1 1 1 0 0
3 1 0 1 1 1 1 1 0 0 0 0 0 0 0 0 0 0 0 0 0 0 0 0 0 0 0 0 0 0 0 0 0 0 0 0 0 0 0 0 0 0 0
2 1 1 1 1 1 1 2 1 1 1 0 0 0 0 0 0 0 0 0 0 0 0 0 0 0 0 0 0 0 0 0 0 0 0 0 0 0 0 0 0 0 0
2 1 1 2 2 1 2 3 3 2 2 1 1 0 0 0 0 0 0 0 0 0 0 0 0 0 0 0 0 0 0 0 0 0 0 0 0 0 0 0 0 0 0
2 1 0 1 2 2 3 3 3 3 3 3 2 1 1 1 0 0 0 0 0 0 0 0 0 0 0 0 0 0 0 0 0 0 0 0 0 0 0 0 0 0 0
2 1 1 0 1 2 3 3 3 3 3 3 3 3 2 2 1 0 0 0 0 0 0 0 0 0 0 0 0 0 0 0 0 0 0 0 0 0 0 0 0 0 0
3 2 2 1 0 1 3 3 3 3 3 3 3 3 3 2 1 0 0 0 0 0 0 0 0 0 0 0 0 0 0 0 0 0 0 0 0 0 0 0 0 0 0
Wind_Speed
1 1 0 0 0 1 1 1 1 1 1 1 1 1 1 1 1 2 2 2 2 2 3 3 4 4 4 4 3 4 4 4 5 5 4 3 3 5 4 4 4 5 5
1 1 1 1 0 0 0 0 1 1 1 1 1 1 1 1 1 2 3 3 3 3 3 4 4 3 4 4 4 4 4 4 5 6 5 4 5 5 5 5 5 5 5
2 2 2 1 1 1 1 1 0 0 0 1 1 1 2 2 2 2 3 3 3 4 4 4 4 4 5 4 5 5 4 5 5 5 6 4 4 4 5 5 6 4 6
3 2 2 2 1 1 1 1 1 1 0 1 1 1 2 2 2 3 3 4 4 4 4 4 5 4 5 5 4 5 5 5 5 5 5 5 5 5 4 5 5 4 4
2 2 2 2 1 1 1 1 1 0 1 1 1 1 1 2 2 3 4 4 4 4 4 4 4 3 3 4 4 4 5 5 5 5 5 4 4 4 4 4 4 4 4
2 2 2 1 1 1 1 1 1 1 1 1 2 2 2 2 3 3 5 4 4 3 4 4 3 2 2 3 4 5 6 6 6 5 4 4 4 4 4 4 4 4 4
1 1 1 1 0 0 0 1 1 2 2 2 2 2 2 2 2 2 4 4 4 3 4 4 3 2 2 3 3 5 5 6 7 6 6 6 5 5 5 6 5 5 5
1 1 1 1 0 1 1 1 1 2 2 2 2 3 3 1 1 2 3 4 4 3 3 3 3 3 3 4 5 4 4 3 3 4 4 5 5 4 5 6 5 5 6
0 0 1 1 1 1 2 2 2 2 2 3 2 3 3 2 0 1 4 4 3 3 3 3 3 3 1 3 5 5 5 4 2 3 4 5 5 4 5 4 4 4 5
1 1 1 1 2 3 2 3 2 2 3 3 3 3 3 3 1 1 4 4 3 3 3 2 1 2 2 2 4 4 4 4 4 3 4 5 5 5 7 6 5 5 4
1 1 2 2 3 3 3 3 3 3 3 4 4 3 2 2 0 1 3 4 4 4 4 3 0 2 1 2 5 5 4 6 5 5 4 4 4 3 4 4 4 5 5
2 2 2 3 3 2 3 3 3 4 4 4 4 4 2 1 1 1 3 4 6 5 4 3 1 1 2 3 4 4 6 6 5 4 4 3 3 3 3 3 4 5 4
2 2 2 3 3 3 3 3 3 3 4 3 3 3 3 2 1 2 3 4 5 5 3 3 2 3 5 5 5 6 6 5 4 4 4 4 4 3 3 3 3 4 5
2 2 2 3 2 2 3 3 3 3 3 3 3 3 3 2 3 2 2 2 3 4 3 3 5 6 6 4 4 4 4 3 4 4 4 4 3 3 3 3 3 3 3
2 2 3 3 2 2 2 2 3 3 3 4 4 4 4 4 4 6 5 5 5 4 4 4 3 3 3 3 3 3 3 3 3 3 4 4 3 3 3 3 3 3 3
2 2 2 2 2 2 2 1 1 1 0 2 3 4 2 2 3 5 5 5 6 6 5 4 3 3 3 3 3 3 3 3 3 3 4 3 3 4 4 3 3 3 4
2 2 2 2 2 2 2 2 2 1 2 3 4 4 4 3 4 5 5 5 6 5 4 3 3 3 3 3 3 3 3 3 3 4 4 3 4 4 3 3 4 4 4
2 1 3 2 3 3 3 3 3 2 2 1 2 4 5 5 5 5 5 4 3 2 3 3 3 3 3 3 3 3 3 3 3 4 3 4 3 4 4 4 4 4 4
3 2 2 3 3 3 3 3 3 3 3 2 1 2 4 5 5 4 4 4 3 3 3 3 3 3 3 3 3 3 3 3 3 4 3 4 4 4 4 4 3 3 4
2 2 4 4 3 3 3 3 3 3 3 3 2 2 1 2 2 1 2 3 4 3 3 3 3 3 3 3 3 3 3 3 3 3 3 4 4 3 4 4 4 3 3
2 1 3 4 3 3 3 3 3 3 3 3 3 2 3 4 3 3 2 2 3 4 4 4 3 3 3 3 3 3 4 3 3 3 3 3 3 3 3 3 3 3 3
3 2 3 3 3 3 3 3 3 3 3 4 3 1 2 4 3 3 3 2 3 3 3 4 3 3 3 3 3 4 4 4 3 3 3 3 3 3 3 3 3 3 3
3 3 3 3 3 2 3 3 3 3 3 3 3 3 2 3 3 3 2 2 3 3 3 3 3 3 3 3 3 4 4 4 4 4 4 4 3 3 3 3 4 4 3
3 3 3 3 3 3 3 3 3 3 3 3 3 3 3 3 3 3 3 2 3 3 3 3 3 4 4 4 3 3 3 4 5 4 5 4 4 3 3 3 4 4 3
2 2 3 3 3 3 3 4 3 3 3 3 3 3 3 3 3 3 3 2 2 2 3 3 3 3 4 4 4 4 4 4 4 6 4 4 4 4 4 4 3 3 3
2 2 3 3 3 3 4 4 3 3 3 3 3 3 4 4 3 2 2 2 2 2 2 2 3 4 5 4 4 4 3 3 4 6 6 4 4 3 3 3 3 3 3
Wind_Direction
159 169 194 243 277 251 224 206 219 242 221 248 273 291 278 277 277 266 272 258 253 259 262 260 266 277 275 278 272 267 269 266 269 277 275 268 254 257 255 256 255 249 229
104 118 107 102 90 310 38 211 175 204 241 267 280 284 280 284 290 283 284 276 269 270 274 270 267 261 260 268 267 262 267 268 264 276 275 264 251 249 249 252 255 249 257
79 114 112 99 87 66 46 44 91 97 17 296 286 283 288 289 280 279 281 277 277 278 279 277 275 271 269 269 267 263 259 255 254 263 269 264 255 248 249 249 252 253 257
67 81 94 85 77 77 73 55 40 48 16 314 303 301 302 301 299 293 290 284 281 282 282 280 279 274 273 274 269 268 266 264 256 254 258 257 252 247 247 250 253 242 251
71 73 85 90 92 97 88 64 46 354 299 296 296 305 306 291 332 325 301 291 289 289 287 284 286 298 322 308 299 295 283 271 266 258 255 256 259 261 260 261 264 267 260
84 76 86 105 108 113 100 39 14 344 327 314 308 314 323 342 43 350 306 297 297 295 296 296 283 247 245 260 280 292 295 281 279 276 275 274 273 268 270 268 263 262 263
109 104 104 119 125 173 352 24 352 329 324 324 320 318 318 9 52 312 300 295 293 298 297 294 294 313 273 279 256 245 259 262 263 274 276 278 278 273 272 265 260 265 269
156 118 97 99 59 299 301 331 328 320 314 308 304 306 306 343 80 284 284 265 282 287 282 278 283 291 299 308 295 292 289 278 257 251 272 278 282 293 278 269 267 259 259
243 311 336 327 309 297 295 301 305 302 298 291 287 293 295 314 79 278 281 267 264 273 274 280 282 281 350 306 281 282 285 278 239 229 263 278 292 285 281 276 265 262 264
264 280 285 287 287 284 286 286 295 292 290 292 300 298 296 306 50 250 272 277 284 279 271 260 275 301 340 269 272 279 282 288 285 252 235 240 245 241 230 243 257 258 263
278 281 275 270 266 268 273 274 283 284 290 287 287 283 289 317 7 213 251 285 297 292 291 282 295 135 262 257 267 278 286 290 278 267 256 247 240 239 231 229 246 259 263
275 282 279 275 278 280 266 265 270 278 272 266 266 274 275 254 285 198 224 256 295 296 299 305 3 121 230 256 257 280 278 271 267 270 273 273 268 263 257 250 247 251 257
269 281 281 277 279 283 276 269 267 266 274 282 287 293 299 304 153 184 215 241 258 273 301 339 325 240 229 230 232 252 258 258 268 270 273 276 278 278 270 255 244 244 249
268 273 268 264 266 278 282 281 292 298 296 297 301 306 309 309 326 335 296 242 233 245 265 238 230 235 241 256 240 234 249 272 277 274 277 278 277 271 262 265 260 249 250
270 265 269 269 284 273 274 328 312 337 343 319 320 321 320 324 353 352 327 325 319 318 298 270 266 263 263 265 271 274 262 251 256 274 279 281 281 275 274 275 271 264 261
274 272 276 281 278 270 254 227 43 326 267 257 284 297 323 338 325 324 320 307 300 296 285 278 283 286 291 293 286 277 268 271 275 273 274 278 281 279 279 279 276 272 273
303 291 287 288 282 280 280 278 258 212 210 224 235 249 261 280 292 296 298 295 278 268 268 285 294 301 299 296 294 291 291 294 284 274 276 280 282 282 283 284 284 282 278
292 272 278 284 296 298 293 286 281 277 262 244 207 205 220 233 251 270 281 275 254 239 281 294 297 295 296 300 304 304 303 300 290 283 278 281 282 282 287 291 290 290 288
294 304 300 299 290 291 293 290 285 282 290 295 287 189 211 221 220 240 246 273 304 305 297 297 299 297 299 304 310 307 301 301 303 297 294 289 280 276 278 284 291 299 289
288 317 297 289 285 287 285 280 279 281 288 295 301 319 303 277 288 274 250 286 303 311 310 306 301 301 299 301 300 297 297 295 292 290 298 295 290 284 279 277 283 288 288
287 268 263 280 294 305 300 292 291 293 292 293 303 354 328 299 300 306 304 302 307 313 313 308 300 292 288 289 290 290 294 299 303 305 305 306 309 302 288 279 277 280 283
301 298 289 293 299 301 306 301 296 292 292 293 296 280 215 273 290 300 309 316 309 303 308 303 300 300 301 294 290 288 291 294 297 303 303 300 296 294 290 278 271 270 270
297 307 301 302 306 300 282 291 299 301 307 310 313 328 312 301 305 305 312 317 314 313 315 310 303 304 309 304 297 291 292 298 300 298 292 285 281 277 279 279 273 271 270
306 311 307 309 311 308 303 304 305 307 314 322 326 327 320 310 306 310 315 319 317 318 315 313 314 322 320 310 300 299 320 322 308 292 288 287 285 285 280 281 280 273 265
298 308 308 313 315 314 314 309 309 313 315 318 320 321 317 311 311 316 317 318 322 327 326 320 317 321 325 324 325 341 9 348 321 310 289 282 282 285 278 273 278 283 274
292 302 303 308 312 315 313 310 309 309 309 313 316 317 313 309 313 320 318 321 324 336 332 328 343 353 348 336 354 2 1 337 320 307 297 289 283 280 281 269 264 266 275